Location: Sungai Dangang
(2.7500°N, 113.8333°E)
Time: 05:41:43
(UTC+00:00)

Cosmos 2360 Rocket - Pass Details

Date: 16 May 2021
Orbit: 835 x 844 km, 71.0° (Epoch: 16 June)

Event Time Altitude Azimuth Distance (km) Brightness Sun altitude
Exits shadow 19:36:48 16° 3° (N) 2,084 4.5 -37.1°
Drops below altitude 10° 19:37:48 10° 6° (N) 2,452 4.9 -36.9°
Sets 19:40:16 0° 9° (N) 3,385 5.8 -36.3°
